Погода в Барсуках

Россия / Республика Ингушетия     43°15′39″N   44°48′33″E
темп.,
°C
ветер,
м/с
пор.,
м/с
влажн.,
%
обл.,
%
осадки,
мм/ч
давл.,
гПа
погр.,
м
18 мая, вт
вт1800:00+14зюз5992100 0.3 1009281
03:00+15з3796100 0.8 1009488
06:00+14зсз3795100 0.5 1010490
09:00+14сз3588100 0.6 1011520
12:00+16ююз018180 0.1 1012580
15:00+18ссв117095 0.3 1012664
18:00+19св127118 0.0 1012427
21:00+14вюв22860 0.0 101312
19 мая, ср
ср1900:00+13юв11890 0.0 101212
03:00+12вюв11870 0.0 101012
06:00+14вюв25830 0.0 1010157
09:00+20в45612 0.0 1008528
12:00+22всв225533 0.0 1008739
15:00+24ссз445595 0.1 10101701
18:00+14зсз5998100 3.4 1015616
21:00+13зсз2395100 4.8 1018254
20 мая, чт
чт2000:00+13ююв1194100 0.6 101848
03:00+12всв119072 0.6 101725
06:00+12всв39895 0.0 1017349
09:00+17в79600 0.0 1017937
12:00+20в77510 0.0 10151035
15:00+21в66522 0.0 10141014
18:00+19в48670 0.0 1015340
21:00+13в35750 0.0 101675
21 мая, пт
пт2100:00+12ююв11800 0.0 101511
03:00+12юв11800 0.0 101410
06:00+15вюв11720 0.0 101334
09:00+21св33580 0.0 1012344
12:00+25всв34552 0.0 1011629
15:00+27всв34503 0.0 1010767
18:00+24св23693 0.0 101074
21:00+18в11795 0.0 101011
22 мая, сб
сб2200:00+17ю2276100 0.0 101011
03:00+17юв126488 0.0 100911
06:00+18в2263100 0.0 100815
09:00+25ссв22505 0.0 1007274
12:00+28св454978 0.0 1006603
15:00+29св33495 0.0 1005774
18:00+27ссз22641 0.0 100519
21:00+21зюз3478100 0.0 100856